Stündliche Wetter Barrancas

Heute, 25 Oktober, Sonntag

Zeit Temperatur Niederschläge Wind Luftdruck Luftfeuchtigkeit
00:00 +24°C° 0.2 mm 1 m/S 736 mmHg 93%
01:00 +24°C° 0.2 mm 1 m/S 736 mmHg 93%
02:00 +24°C° 0 mm 1 m/S 736 mmHg 92%
03:00 +24°C° 0 mm 1 m/S 736 mmHg 91%
04:00 +24°C° 0 mm 1 m/S 736 mmHg 90%
05:00 +25°C° 0 mm 1 m/S 737 mmHg 87%
06:00 +26°C° 0 mm 1 m/S 737 mmHg 83%
07:00 +27°C° 0 mm 1 m/S 738 mmHg 80%
08:00 +28°C° 0 mm 1 m/S 738 mmHg 75%
09:00 +30°C° 0 mm 2 m/S 738 mmHg 70%
10:00 +31°C° 0 mm 3 m/S 739 mmHg 66%
11:00 +33°C° 0.4 mm 3 m/S 738 mmHg 67%
12:00 +32°C° 0.4 mm 2 m/S 737 mmHg 68%
13:00 +32°C° 0.4 mm 2 m/S 736 mmHg 69%
14:00 +31°C° 1 mm 2 m/S 736 mmHg 75%
15:00 +30°C° 1 mm 2 m/S 735 mmHg 80%
16:00 +30°C° 1 mm 2 m/S 735 mmHg 85%
17:00 +28°C° 0.6 mm 1 m/S 736 mmHg 88%
18:00 +27°C° 0.6 mm 1 m/S 736 mmHg 91%
19:00 +26°C° 0.6 mm 1 m/S 737 mmHg 94%
20:00 +26°C° 0.1 mm 1 m/S 737 mmHg 94%
21:00 +25°C° 0.1 mm 1 m/S 737 mmHg 93%
22:00 +25°C° 0.1 mm 1 m/S 737 mmHg 93%
23:00 +25°C° 0 mm 1 m/S 737 mmHg 92%

Morgen, 26 Oktober, Montag

Zeit Temperatur Niederschläge Wind Luftdruck Luftfeuchtigkeit
00:00 +25°C° 0 mm 1 m/S 737 mmHg 91%
01:00 +24°C° 0 mm 1 m/S 736 mmHg 90%
02:00 +24°C° 0 mm 1 m/S 736 mmHg 89%
03:00 +24°C° 0 mm 1 m/S 736 mmHg 87%
04:00 +24°C° 0 mm 1 m/S 736 mmHg 86%
05:00 +25°C° 0 mm 1 m/S 737 mmHg 83%
06:00 +26°C° 0 mm 1 m/S 737 mmHg 80%
07:00 +27°C° 0 mm 1 m/S 738 mmHg 77%
08:00 +29°C° 0 mm 1 m/S 738 mmHg 70%
09:00 +31°C° 0 mm 2 m/S 738 mmHg 64%
10:00 +34°C° 0 mm 2 m/S 739 mmHg 58%
11:00 +34°C° 0.1 mm 2 m/S 738 mmHg 58%
12:00 +34°C° 0.1 mm 2 m/S 737 mmHg 59%
13:00 +34°C° 0.1 mm 2 m/S 736 mmHg 59%
14:00 +34°C° 0.2 mm 2 m/S 736 mmHg 64%
15:00 +32°C° 0.2 mm 2 m/S 735 mmHg 70%
16:00 +31°C° 0.2 mm 1 m/S 735 mmHg 75%
17:00 +30°C° 0.7 mm 1 m/S 735 mmHg 81%
18:00 +28°C° 0.7 mm 1 m/S 736 mmHg 87%
19:00 +26°C° 0.7 mm 1 m/S 737 mmHg 93%
20:00 +26°C° 0.7 mm 1 m/S 737 mmHg 93%
21:00 +26°C° 0.7 mm 1 m/S 737 mmHg 94%
22:00 +25°C° 0.7 mm 1 m/S 737 mmHg 94%
23:00 +25°C° 0.2 mm 1 m/S 737 mmHg 94%

übermorgen, 27 Oktober, Dienstag

Zeit Temperatur Niederschläge Wind Luftdruck Luftfeuchtigkeit
00:00 +25°C° 0.2 mm 1 m/S 737 mmHg 94%
01:00 +24°C° 0.2 mm 1 m/S 736 mmHg 94%
02:00 +24°C° 0.1 mm 1 m/S 736 mmHg 94%
03:00 +24°C° 0.1 mm 1 m/S 736 mmHg 93%
04:00 +24°C° 0.1 mm 1 m/S 736 mmHg 93%
05:00 +25°C° 0 mm 1 m/S 737 mmHg 91%
06:00 +25°C° 0 mm 1 m/S 737 mmHg 88%
07:00 +26°C° 0 mm 1 m/S 738 mmHg 85%
08:00 +28°C° 0 mm 1 m/S 738 mmHg 78%
09:00 +30°C° 0 mm 2 m/S 738 mmHg 71%
10:00 +33°C° 0 mm 3 m/S 738 mmHg 64%
11:00 +33°C° 0.1 mm 3 m/S 737 mmHg 64%
12:00 +33°C° 0.1 mm 3 m/S 737 mmHg 65%
13:00 +33°C° 0.1 mm 3 m/S 736 mmHg 66%
14:00 +31°C° 0.4 mm 2 m/S 735 mmHg 71%
15:00 +31°C° 0.4 mm 2 m/S 735 mmHg 77%
16:00 +30°C° 0.4 mm 2 m/S 734 mmHg 82%
17:00 +29°C° 0.8 mm 1 m/S 735 mmHg 85%
18:00 +27°C° 0.8 mm 1 m/S 735 mmHg 88%
19:00 +26°C° 0.8 mm 1 m/S 736 mmHg 92%
20:00 +26°C° 0.7 mm 1 m/S 736 mmHg 92%
21:00 +25°C° 0.7 mm 1 m/S 736 mmHg 93%
22:00 +25°C° 0.7 mm 1 m/S 736 mmHg 94%
23:00 +25°C° 0 mm 1 m/S 736 mmHg 93%

28 Oktober, Mittwoch

Zeit Temperatur Niederschläge Wind Luftdruck Luftfeuchtigkeit
00:00 +24°C° 0 mm 1 m/S 736 mmHg 92%
01:00 +24°C° 0 mm 1 m/S 735 mmHg 92%
02:00 +24°C° 0 mm 1 m/S 735 mmHg 91%
03:00 +24°C° 0 mm 1 m/S 735 mmHg 89%
04:00 +24°C° 0 mm 1 m/S 735 mmHg 88%
05:00 +24°C° 0 mm 1 m/S 736 mmHg 85%
06:00 +25°C° 0 mm 1 m/S 736 mmHg 82%
07:00 +26°C° 0 mm 1 m/S 737 mmHg 78%
08:00 +28°C° 0 mm 1 m/S 737 mmHg 71%
09:00 +30°C° 0 mm 1 m/S 737 mmHg 65%
10:00 +32°C° 0 mm 2 m/S 737 mmHg 58%
11:00 +32°C° 0.1 mm 2 m/S 736 mmHg 59%
12:00 +34°C° 0.1 mm 2 m/S 735 mmHg 60%
13:00 +34°C° 0.1 mm 3 m/S 735 mmHg 61%
14:00 +32°C° 0.3 mm 2 m/S 734 mmHg 66%
15:00 +32°C° 0.3 mm 2 m/S 734 mmHg 70%
16:00 +31°C° 0.3 mm 1 m/S 733 mmHg 75%
17:00 +29°C° 0.2 mm 1 m/S 734 mmHg 80%
18:00 +28°C° 0.2 mm 1 m/S 734 mmHg 85%
19:00 +26°C° 0.2 mm 1 m/S 735 mmHg 89%
20:00 +26°C° 0.2 mm 1 m/S 735 mmHg 91%
21:00 +25°C° 0.2 mm 1 m/S 736 mmHg 92%
22:00 +25°C° 0.2 mm 1 m/S 736 mmHg 93%
23:00 +24°C° 0 mm 1 m/S 735 mmHg 91%

29 Oktober, Donnerstag

Zeit Temperatur Niederschläge Wind Luftdruck Luftfeuchtigkeit
00:00 +24°C° 0 mm 1 m/S 735 mmHg 90%
01:00 +24°C° 0 mm 1 m/S 735 mmHg 88%
02:00 +24°C° 0 mm 1 m/S 735 mmHg 86%
03:00 +24°C° 0 mm 1 m/S 735 mmHg 84%
04:00 +24°C° 0 mm 1 m/S 735 mmHg 82%
05:00 +24°C° 0.1 mm 1 m/S 736 mmHg 81%
06:00 +25°C° 0.1 mm 1 m/S 736 mmHg 80%
07:00 +26°C° 0.1 mm 1 m/S 737 mmHg 79%
08:00 +28°C° 0 mm 1 m/S 737 mmHg 72%
09:00 +30°C° 0 mm 1 m/S 737 mmHg 65%
10:00 +32°C° 0 mm 2 m/S 738 mmHg 58%
11:00 +32°C° 0.2 mm 2 m/S 737 mmHg 60%
12:00 +34°C° 0.2 mm 2 m/S 736 mmHg 62%
13:00 +34°C° 0.2 mm 3 m/S 735 mmHg 63%
14:00 +32°C° 0.2 mm 2 m/S 735 mmHg 67%
15:00 +32°C° 0.2 mm 2 m/S 734 mmHg 70%
16:00 +31°C° 0.2 mm 2 m/S 734 mmHg 74%
17:00 +30°C° 0.6 mm 2 m/S 734 mmHg 79%
18:00 +28°C° 0.6 mm 1 m/S 735 mmHg 84%
19:00 +26°C° 0.6 mm 1 m/S 735 mmHg 90%
20:00 +26°C° 1.3 mm 1 m/S 736 mmHg 91%
21:00 +25°C° 1.3 mm 2 m/S 736 mmHg 92%
22:00 +25°C° 1.3 mm 2 m/S 736 mmHg 94%
23:00 +25°C° 0.1 mm 1 m/S 736 mmHg 93%

30 Oktober, Freitag

Zeit Temperatur Niederschläge Wind Luftdruck Luftfeuchtigkeit
00:00 +25°C° 0.1 mm 1 m/S 736 mmHg 92%
01:00 +24°C° 0.1 mm 1 m/S 736 mmHg 92%
02:00 +25°C° 0 mm 1 m/S 736 mmHg 90%
03:00 +25°C° 0 mm 1 m/S 736 mmHg 89%
04:00 +25°C° 0 mm 1 m/S 736 mmHg 87%
05:00 +25°C° 0.1 mm 1 m/S 736 mmHg 85%
06:00 +24°C° 0.1 mm 0 m/S 737 mmHg 84%
07:00 +25°C° 0.1 mm 0 m/S 737 mmHg 82%
08:00 +28°C° 0 mm 1 m/S 737 mmHg 76%
09:00 +30°C° 0 mm 1 m/S 738 mmHg 69%
10:00 +32°C° 0 mm 2 m/S 738 mmHg 63%
11:00 +32°C° 0.4 mm 2 m/S 737 mmHg 64%
12:00 +32°C° 0.4 mm 2 m/S 736 mmHg 65%
13:00 +34°C° 0.4 mm 2 m/S 735 mmHg 66%
14:00 +32°C° 0.9 mm 1 m/S 735 mmHg 71%
15:00 +31°C° 0.9 mm 1 m/S 734 mmHg 76%
16:00 +31°C° 0.9 mm 1 m/S 734 mmHg 80%
17:00 +29°C° 2.4 mm 1 m/S 734 mmHg 84%
18:00 +28°C° 2.4 mm 1 m/S 735 mmHg 88%
19:00 +26°C° 2.4 mm 1 m/S 736 mmHg 92%
20:00 +26°C° 2.5 mm 1 m/S 736 mmHg 93%
21:00 +26°C° 2.5 mm 1 m/S 736 mmHg 94%
22:00 +25°C° 2.5 mm 1 m/S 737 mmHg 96%
23:00 +25°C° 1.3 mm 1 m/S 737 mmHg 95%
Mehr zeigen